FW4413 Weather Reports


time (UTC)temp
C
wind
direction
speed
KPH
gust
KPH
rain 1hr
cm
rain 24hr
cm
rain mn
cm
humidity
%
barometer
mb
20260505172904 16 277 9.7 32.2 0.00 0.00 0.00 65 1007.8
20260505172402 16 241 1.6 11.3 0.00 0.00 0.00 67 1006.9
20260505171903 17 322 1.6 8.0 0.00 0.00 0.00 67 1006.5
20260505171403 17 326 3.2 9.7 0.00 0.00 0.00 67 1006.5
20260505170904 17 352 3.2 9.7 0.00 0.00 0.00 67 1006.4
20260505170359 17 331 1.6 6.4 0.00 0.00 0.00 67 1006.4
20260505165852 17 332 1.6 8.0 0.00 0.00 0.00 67 1006.3
20260505164848 17 347 3.2 8.0 0.00 0.00 0.00 66 1006.4
20260505164348 17 28 3.2 12.9 0.00 0.00 0.00 67 1006.4
20260505163842 17 51 3.2 12.9 0.00 0.00 0.00 67 1006.4
20260505163551 17 44 4.8 14.5 0.00 0.00 0.00 67 1006.6
20260505163415 17 35 3.2 14.5 0.00 0.00 0.00 68 1006.5
20260505162342 17 1 4.8 14.5 0.00 0.00 0.00 66 1006.7
20260505161938 18 30 8.0 24.1 0.00 0.00 0.00 66 1006.8
20260505161903 17 37 8.0 19.3 0.00 0.00 0.00 66 1006.7
20260505161526 18 56 9.7 24.1 0.00 0.00 0.00 66 1006.7
20260505160410 18 22 8.0 20.9 0.00 0.00 0.00 66 1006.8
20260505153335 18 16 4.8 12.9 0.00 0.00 0.00 67 1006.9
20260505152833 18 77 6.4 11.3 0.00 0.00 0.00 67 1007.0
20260505152328 18 48 6.4 14.5 0.00 0.00 0.00 68 1007.1
20260505152052 18 39 3.2 14.5 0.00 0.00 0.00 68 1007.1
20260505151901 18 18 4.8 14.5 0.00 0.00 0.00 68 1007.1
20260505151119 18 44 6.4 19.3 0.00 0.00 0.00 66 1007.2
20260505150907 18 342 6.4 19.3 0.00 0.00 0.00 67 1007.2
20260505140310 18 338 3.2 14.5 0.00 0.00 0.00 62 1007.4
20260505124809 20 332 4.8 22.5 0.00 0.00 0.00 58 1008.0
20260505124433 20 313 6.4 17.7 0.00 0.00 0.00 58 1008.0
20260505124334 20 338 4.8 16.1 0.00 0.00 0.00 59 1008.0
20260505123302 19 328 8.0 17.7 0.00 0.00 0.00 58 1008.0
20260505122803 19 320 6.4 16.1 0.00 0.00 0.00 58 1008.0
20260505122305 19 335 6.4 14.5 0.00 0.00 0.00 59 1008.0
20260505121802 19 326 6.4 20.9 0.00 0.00 0.00 59 1008.1
20260505121301 19 333 6.4 20.9 0.00 0.00 0.00 59 1008.1
20260505120802 20 13 4.8 17.7 0.00 0.00 0.00 59 1008.1
20260505120310 20 318 4.8 20.9 0.00 0.00 0.00 60 1008.1
20260505115802 20 2 8.0 20.9 0.00 0.00 0.00 58 1008.2
20260505115556 20 330 9.7 20.9 0.00 0.00 0.00 57 1008.2
20260505115346 20 326 11.3 20.9 0.00 0.00 0.00 57 1008.1
20260505114303 20 317 6.4 19.3 0.00 0.00 0.00 57 1008.2
20260505113801 21 323 3.2 11.3 0.00 0.00 0.00 56 1008.3
20260505113302 20 43 3.2 11.3 0.00 0.00 0.00 52 1008.2
20260505112758 20 42 4.8 12.9 0.00 0.00 0.00 51 1008.3
20260505112258 20 49 3.2 12.9 0.00 0.00 0.00 54 1008.4
20260505111803 20 22 1.6 8.0 0.00 0.00 0.00 56 1008.4
20260505111256 20 348 3.2 9.7 0.00 0.00 0.00 58 1008.4
20260505110757 19 32 3.2 16.1 0.00 0.00 0.00 59 1008.4
20260505110257 19 29 4.8 16.1 0.00 0.00 0.00 58 1008.4
20260505110230 20 351 4.8 14.5 0.00 0.00 0.00 59 1008.5
20260505101236 20 89 6.4 11.3 0.00 0.00 0.00 55 1008.9
20260505100736 19 44 6.4 12.9 0.00 0.00 0.00 56 1008.9
20260505100233 19 108 8.0 14.5 0.00 0.00 0.00 57 1009.0
20260505095731 19 76 8.0 17.7 0.00 0.00 0.00 57 1009.1
20260505095232 19 69 6.4 17.7 0.00 0.00 0.00 59 1009.0
20260505094735 19 80 3.2 12.9 0.00 0.00 0.00 58 1009.1
20260505094233 19 31 4.8 9.7 0.00 0.00 0.00 61 1009.1
20260505093729 18 94 6.4 12.9 0.00 0.00 0.00 58 1009.2
20260505093229 18 100 6.4 14.5 0.00 0.00 0.00 60 1009.3
20260505092734 18 106 4.8 14.5 0.00 0.00 0.00 60 1009.3
20260505092236 18 62 4.8 14.5 0.00 0.00 0.00 60 1009.3
20260505091729 18 70 4.8 14.5 0.00 0.00 0.00 61 1009.4
20260505091232 18 99 4.8 14.5 0.00 0.00 0.00 62 1009.4
20260505090734 18 90 4.8 12.9 0.00 0.00 0.00 61 1009.5
20260505090317 18 92 6.4 14.5 0.00 0.00 0.00 62 1009.5
20260505085936 18 64 6.4 14.5 0.00 0.00 0.00 63 1009.7
20260505085333 18 91 4.8 11.3 0.00 0.00 0.00 63 1009.8
20260505084218 17 124 3.2 8.0 0.00 0.00 0.00 67 1009.9
20260505083716 17 96 1.6 6.4 0.00 0.00 0.00 69 1009.8
20260505083216 17 145 3.2 8.0 0.00 0.00 0.00 69 1009.9
20260505082713 17 113 4.8 9.7 0.00 0.00 0.00 68 1009.9
20260505082216 17 80 4.8 9.7 0.00 0.00 0.00 70 1009.9
20260505081713 16 124 4.8 11.3 0.00 0.00 0.00 71 1009.9
20260505081216 16 146 3.2 11.3 0.00 0.00 0.00 70 1010.0
20260505080713 16 114 3.2 6.4 0.00 0.00 0.00 72 1010.0
20260505080207 16 58 3.2 6.4 0.00 0.00 0.00 73 1010.1
20260505075706 16 90 3.2 6.4 0.00 0.00 0.00 73 1010.1
20260505075207 16 62 1.6 6.4 0.00 0.00 0.00 73 1010.1
20260505074706 16 347 1.6 6.4 0.00 0.00 0.00 73 1010.2
20260505073713 15 61 3.2 9.7 0.00 0.00 0.00 77 1010.2
20260505073207 15 317 1.6 6.4 0.00 0.00 0.00 75 1010.2
20260505072709 15 329 3.2 8.0 0.00 0.00 0.00 78 1010.3
20260505072214 15 305 1.6 8.0 0.00 0.00 0.00 78 1010.4
20260505071702 15 18 1.6 8.0 0.00 0.00 0.00 80 1010.4
20260505071205 14 331 3.2 9.7 0.00 0.00 0.00 80 1010.4
20260505070659 14 326 4.8 9.7 0.00 0.00 0.00 80 1010.4
20260505070158 13 307 3.2 6.4 0.00 0.00 0.00 81 1010.5
20260505065651 13 326 1.6 6.4 0.00 0.00 0.00 81 1010.5
20260505065252 13 331 3.2 8.0 0.00 0.00 0.00 81 1010.5
20260505065204 13 331 1.6 6.4 0.00 0.00 0.00 81 1010.4
20260505064145 13 328 3.2 8.0 0.00 0.00 0.00 81 1010.5
20260505063644 13 327 1.6 8.0 0.00 0.00 0.00 81 1010.6
20260505063143 13 335 1.6 6.4 0.00 0.00 0.00 82 1010.6
20260505062648 13 328 1.6 8.0 0.00 0.00 0.00 82 1010.6
20260505062145 13 67 1.6 8.0 0.00 0.00 0.00 82 1010.7
20260505061643 13 325 1.6 8.0 0.00 0.00 0.00 83 1010.7
20260505061531 13 336 1.6 6.4 0.00 0.00 0.00 83 1010.7
20260505061524 13 333 1.6 8.0 0.00 0.00 0.00 83 1010.8
20260505061449 13 253 1.6 8.0 0.00 0.00 0.00 82 1010.8
20260505061307 13 21 0.0 4.8 0.00 0.00 0.00 82 1010.7
20260505054907 13 328 1.6 8.0 0.00 0.00 0.00 82 1010.7
20260505053129 12 286 1.6 9.7 0.00 0.00 0.00 84 1010.6
20260505052630 12 325 1.6 11.3 0.00 0.00 0.00 85 1010.6
20260505052132 12 323 3.2 11.3 0.00 0.00 0.00 84 1010.6
20260505051630 12 17 1.6 9.7 0.00 0.00 0.00 84 1010.5
20260505051130 12 333 1.6 4.8 0.00 0.00 0.00 85 1010.6
20260505050619 12 327 0.0 8.0 0.00 0.00 0.00 85 1010.6
20260505050114 12 326 0.0 8.0 0.00 0.00 0.00 86 1010.6
20260505041108 12 321 11.3 19.3 0.00 0.00 0.00 84 1010.7
20260505040755 12 326 12.9 20.9 0.00 0.00 0.00 84 1010.8
20260505040637 12 324 12.9 20.9 0.00 0.00 0.00 84 1010.8
20260505035604 12 315 11.3 22.5 0.00 0.00 0.00 84 1010.8
20260505035107 12 333 9.7 22.5 0.00 0.00 0.00 84 1010.8
20260505034601 12 331 8.0 20.9 0.00 0.00 0.00 84 1010.8
20260505034237 12 335 6.4 16.1 0.00 0.00 0.00 83 1011.0
20260505034137 12 333 6.4 16.1 0.00 0.00 0.00 84 1010.9
20260505033103 12 323 4.8 14.5 0.00 0.00 0.00 83 1011.1
20260505032603 12 317 6.4 16.1 0.00 0.00 0.00 82 1011.0
20260505032101 12 330 8.0 17.7 0.00 0.00 0.00 82 1011.0
20260505031602 12 326 9.7 19.3 0.00 0.00 0.00 82 1011.0
20260505031105 12 325 11.3 20.9 0.00 0.00 0.00 81 1011.0
20260505030605 12 319 12.9 20.9 0.00 0.00 0.00 81 1011.0
20260505030111 12 334 11.3 20.9 0.00 0.00 0.00 81 1011.0
20260505025817 12 322 12.9 19.3 0.00 0.00 0.00 81 1011.1
20260505025654 12 328 11.3 20.9 0.00 0.00 0.00 81 1011.1
20260505024728 12 325 12.9 19.3 0.00 0.00 0.00 80 1011.1
20260505024145 12 322 12.9 20.9 0.00 0.00 0.00 80 1011.1
20260505023803 12 326 12.9 20.9 0.00 0.00 0.00 80 1011.2
20260505022636 12 320 11.3 20.9 0.00 0.00 0.00 81 1011.2
20260505021602 13 317 11.3 20.9 0.00 0.00 0.00 80 1011.3
20260505021331 13 331 9.7 17.7 0.00 0.00 0.00 80 1011.5
20260505021150 13 321 11.3 19.3 0.00 0.00 0.00 80 1011.4
20260505020107 13 323 8.0 17.7 0.00 0.00 0.00 80 1011.6
20260505015743 13 324 9.7 16.1 0.00 0.00 0.00 80 1011.4
20260505015633 13 317 8.0 16.1 0.00 0.00 0.00 80 1011.5
20260505014604 13 317 8.0 16.1 0.00 0.00 0.00 80 1011.4
20260505014557 13 305 3.2 8.0 0.00 0.00 0.00 79 1011.6
20260505014552 13 329 1.6 8.0 0.00 0.00 0.00 79 1011.7
20260505014211 13 326 3.2 12.9 0.00 0.00 0.00 80 1011.5
20260505012602 13 315 0.0 8.0 0.00 0.00 0.00 78 1011.8
20260505012103 13 327 0.0 3.2 0.00 0.00 0.00 77 1011.8
20260505011559 13 327 0.0 4.8 0.00 0.00 0.00 77 1011.9
20260505011102 13 327 1.6 11.3 0.00 0.00 0.00 77 1011.9
20260505010558 13 326 4.8 14.5 0.00 0.00 0.00 77 1011.8
20260505010337 13 322 3.2 11.3 0.00 0.00 0.00 77 1011.8
20260505010151 13 328 4.8 14.5 0.00 0.00 0.00 77 1011.7
20260505005227 14 324 8.0 14.5 0.00 0.00 0.00 76 1011.9
20260505004306 14 320 9.7 17.7 0.00 0.00 0.00 76 1011.8
20260505004139 14 331 8.0 16.1 0.00 0.00 0.00 76 1011.8
20260505003417 14 340 9.7 19.3 0.00 0.00 0.00 75 1011.9
20260505003131 14 332 9.7 19.3 0.00 0.00 0.00 75 1011.8
20260505002054 14 319 8.0 17.7 0.00 0.00 0.00 75 1011.9
20260505001550 14 336 8.0 17.7 0.00 0.00 0.00 75 1012.0
20260505001049 14 334 8.0 16.1 0.00 0.00 0.00 75 1012.1
20260505000548 14 339 4.8 14.5 0.00 0.00 0.00 75 1012.1
20260505000058 14 329 3.2 12.9 0.00 0.00 0.00 75 1012.2
20260504235545 14 330 3.2 11.3 0.00 0.00 0.00 75 1012.2
20260504235046 14 317 3.2 11.3 0.00 0.00 0.00 74 1012.3
20260504234544 14 329 1.6 8.0 0.00 0.00 0.00 74 1012.2
20260504232151 15 309 0.0 1.6 0.00 0.00 0.00 72 1012.4
20260504232142 15 309 0.0 3.2 0.00 0.00 0.00 72 1012.4
20260504230536 15 309 1.6 4.8 0.00 0.00 0.00 73 1012.5
20260504230037 14 323 1.6 6.4 0.00 0.00 0.00 73 1012.6
20260504225534 14 302 0.0 6.4 0.00 0.00 0.00 73 1012.5
20260504225034 14 347 0.0 4.8 0.00 0.00 0.00 73 1012.6
20260504224535 15 2 0.0 3.2 0.00 0.00 0.00 72 1012.6
20260504224030 15 2 1.6 4.8 0.00 0.00 0.00 71 1012.6
20260504223524 15 325 3.2 9.7 0.00 0.00 0.00 71 1012.6
20260504223302 15 338 1.6 8.0 0.00 0.00 0.00 69 1012.7
20260504223250 15 301 0.0 8.0 0.00 0.00 0.00 69 1012.7
20260504223102 15 285 3.2 9.7 0.00 0.00 0.00 70 1012.6
20260504221501 15 319 0.0 4.8 0.00 0.00 0.00 69 1012.7
20260504220956 15 319 1.6 6.4 0.00 0.00 0.00 68 1012.8
20260504220450 15 319 1.6 9.7 0.00 0.00 0.00 68 1012.7
20260504215443 16 288 1.6 11.3 0.00 0.00 0.00 64 1012.7
20260504214941 16 305 1.6 8.0 0.00 0.00 0.00 63 1012.7
20260504213440 16 17 0.0 4.8 0.00 0.00 0.00 61 1012.8
20260504212937 16 324 0.0 3.2 0.00 0.00 0.00 61 1012.8
20260504212441 16 324 1.6 8.0 0.00 0.00 0.00 60 1012.8
20260504211937 16 324 1.6 8.0 0.00 0.00 0.00 60 1012.8
20260504211439 16 331 0.0 4.8 0.00 0.00 0.00 60 1012.8
20260504210934 16 333 0.0 3.2 0.00 0.00 0.00 61 1012.8
20260504210435 16 333 0.0 3.2 0.00 0.00 0.00 60 1012.9
20260504205939 16 333 0.0 4.8 0.00 0.00 0.00 60 1012.9
20260504205552 16 332 0.0 3.2 0.00 0.00 0.00 60 1012.9
20260504205442 16 332 0.0 4.8 0.00 0.00 0.00 60 1012.9
20260504204551 16 331 1.6 8.0 0.00 0.00 0.00 59 1012.8
20260504204459 16 331 0.0 4.8 0.00 0.00 0.00 60 1012.9
20260504203436 17 322 3.2 8.0 0.00 0.00 0.00 58 1012.8
20260504202940 17 329 3.2 8.0 0.00 0.00 0.00 57 1012.8
20260504202435 17 323 3.2 6.4 0.00 0.00 0.00 57 1012.9
20260504201936 17 319 3.2 6.4 0.00 0.00 0.00 57 1012.9
20260504201433 17 315 3.2 8.0 0.00 0.00 0.00 57 1012.9
20260504200931 17 329 3.2 8.0 0.00 0.00 0.00 57 1012.9
20260504200437 17 317 4.8 9.7 0.00 0.00 0.00 58 1012.9
20260504195932 16 325 4.8 12.9 0.00 0.00 0.00 58 1012.9
20260504195433 16 331 6.4 12.9 0.00 0.00 0.00 59 1013.0
20260504194935 16 327 6.4 9.7 0.00 0.00 0.00 58 1012.9
20260504194432 16 324 4.8 8.0 0.00 0.00 0.00 58 1012.9
20260504193933 17 323 4.8 8.0 0.00 0.00 0.00 58 1012.9
20260504192930 17 329 4.8 8.0 0.00 0.00 0.00 56 1013.0
20260504192434 17 328 3.2 9.7 0.00 0.00 0.00 55 1013.1
20260504191932 17 285 1.6 9.7 0.00 0.00 0.00 55 1013.1
20260504191427 17 280 3.2 8.0 0.00 0.00 0.00 54 1013.1
20260504190920 17 288 3.2 8.0 0.00 0.00 0.00 54 1013.1
20260504190415 18 280 4.8 9.7 0.00 0.00 0.00 54 1013.1
20260504185906 18 289 4.8 9.7 0.00 0.00 0.00 53 1013.0
20260504185403 18 328 3.2 6.4 0.00 0.00 0.00 54 1013.0
20260504184900 18 329 3.2 6.4 0.00 0.00 0.00 53 1013.0
20260504184450 18 330 3.2 6.4 0.00 0.00 0.00 53 1013.1
20260504183918 18 326 1.6 6.4 0.00 0.00 0.00 53 1013.0
20260504182356 18 297 3.2 8.0 0.00 0.00 0.00 53 1013.0
20260504181856 18 290 4.8 8.0 0.00 0.00 0.00 53 1013.0
20260504181355 18 279 4.8 9.7 0.00 0.00 0.00 53 1013.1
20260504180854 18 280 4.8 9.7 0.00 0.00 0.00 52 1013.1
20260504180345 18 280 3.2 9.7 0.00 0.00 0.00 52 1013.0
20260504175846 18 314 3.2 9.7 0.00 0.00 0.00 51 1012.9
20260504175344 18 323 4.8 9.7 0.00 0.00 0.00 52 1012.7
20260504174844 18 326 4.8 11.3 0.00 0.00 0.00 52 1012.7
20260504174340 18 331 4.8 11.3 0.00 0.00 0.00 51 1012.7